Grand Forks, ND

5:52 PM CDT on June 24, 2018 (GMT -0500)
Grand Forks International

Weather History for KGFK - October, 2017

Change the Weather History Date:

Friday, October 13, 2017

  Actual Average Record
Temperature  
Mean Temperature 45 °F 45 °F  
Max Temperature 58 °F 56 °F 82 °F (1956)
Min Temperature 31 °F 33 °F 14 °F (1979)
Degree Days  
Heating Degree Days 20 20  
Month to date heating degree days 187 230  
Since 1 July heating degree days 385 581  
Cooling Degree Days 0 0  
Month to date cooling degree days 0 0  
Year to date cooling degree days 411 378  
Moisture  
Dew Point 32 °F    
Average Humidity 64    
Maximum Humidity 92    
Minimum Humidity 36    
Precipitation  
Precipitation 0.00 in 0.07 in 0.44 in (1966)
Month to date precipitation 0.08 0.90  
Year to date precipitation 15.58 18.18  
Snow  
Snow 0.00 in 0.00 in 0.50 in (1992)
Month to date snowfall 0.0 0.3  
Since 1 July snowfall 0.0 0.3  
Since 1 September snowfall 0.0 0.3  
Snow Depth 0.00 in    
Sea Level Pressure  
Sea Level Pressure 30.13 in    
Wind  
Wind Speed 7 mph (WNW)    
Max Wind Speed 16 mph    
Max Gust Speed 23 mph    
Visibility 10 miles    
Events      
T = Trace of Precipitation, MM = Missing Value Source: NWS Daily Summary

Daily Weather History Graph

Daily Weather History Graph

Search for Another Location

Airport or City:

Astronomy

Oct. 13, 2017 Rise Set
Actual Time 7:45 AM CDT 6:43 PM CDT
Civil Twilight 7:14 AM CDT 7:14 PM CDT
Nautical Twilight 6:38 AM CDT 7:50 PM CDT
Astronomical Twilight 6:02 AM CDT 8:26 PM CDT
Moon 12:39 AM CDT (10/13) 3:57 PM CDT (10/13)
Length of Visible Light 12h 00m
Length of Day
10h 57m
Last Quarter, 37% of the Moon is Illuminated
Oct 13
Last Quarter
Oct 19
New
Oct 27
First Quarter
Nov 4
Full
Nov 10
Last Quarter

Hourly Weather History & Observations

Time (CDT) Temp. Windchill Dew Point Humidity Pressure Visibility Wind Dir Wind Speed Gust Speed Precip Events Conditions
12:53 AM 39.0 °F 33.4 °F 32.0 °F 76% 30.03 in 10.0 mi West 8.1 mph - N/A   Clear
1:53 AM 39.0 °F 32.8 °F 30.9 °F 73% 30.05 in 10.0 mi WSW 9.2 mph - N/A   Clear
2:53 AM 35.1 °F 30.1 °F 30.9 °F 85% 30.07 in 10.0 mi West 5.8 mph - N/A   Clear
3:53 AM 33.1 °F 26.1 °F 30.0 °F 89% 30.09 in 10.0 mi SW 8.1 mph - N/A   Clear
4:53 AM 33.1 °F 26.1 °F 30.0 °F 89% 30.11 in 10.0 mi SW 8.1 mph - N/A   Clear
5:53 AM 32.0 °F 24.8 °F 28.9 °F 88% 30.12 in 10.0 mi WSW 8.1 mph - N/A   Clear
6:53 AM 32.0 °F 25.6 °F 28.9 °F 88% 30.12 in 10.0 mi West 6.9 mph - N/A   Clear
7:53 AM 30.9 °F 24.3 °F 28.9 °F 92% 30.14 in 10.0 mi WSW 6.9 mph - N/A   Clear
8:53 AM 35.1 °F 28.6 °F 30.0 °F 82% 30.17 in 10.0 mi WSW 8.1 mph - N/A   Clear
9:53 AM 42.1 °F 35.2 °F 32.0 °F 67% 30.19 in 10.0 mi West 12.7 mph - N/A   Clear
10:53 AM 46.9 °F - 32.0 °F 56% 30.18 in 10.0 mi WNW 13.8 mph 23.0 mph N/A   Clear
11:53 AM 48.9 °F - 32.0 °F 52% 30.18 in 10.0 mi WNW 12.7 mph - N/A   Clear
12:53 PM 54.0 °F - 32.0 °F 43% 30.16 in 10.0 mi West 6.9 mph - N/A   Clear
1:53 PM 55.9 °F - 33.1 °F 42% 30.14 in 10.0 mi NNW 6.9 mph - N/A   Clear
2:53 PM 57.0 °F - 32.0 °F 39% 30.12 in 10.0 mi NW 5.8 mph - N/A   Partly Cloudy
3:53 PM 57.0 °F - 30.9 °F 37% 30.13 in 10.0 mi North - - N/A   Mostly Cloudy
4:53 PM 55.9 °F - 34.0 °F 44% 30.12 in 10.0 mi NW 3.5 mph - N/A   Mostly Cloudy
5:53 PM 55.9 °F - 34.0 °F 44% 30.12 in 10.0 mi North 3.5 mph - N/A   Mostly Cloudy
6:53 PM 52.0 °F - 33.1 °F 49% 30.13 in 10.0 mi ENE 4.6 mph - N/A   Mostly Cloudy
7:53 PM 45.0 °F 42.6 °F 33.1 °F 63% 30.14 in 10.0 mi SE 4.6 mph - N/A   Scattered Clouds
8:53 PM 42.1 °F - 34.0 °F 73% 30.17 in 10.0 mi Calm Calm - N/A   Mostly Cloudy
9:53 PM 37.9 °F 35.5 °F 33.1 °F 83% 30.18 in 10.0 mi NNE 3.5 mph - N/A   Scattered Clouds
10:53 PM 41.0 °F 39.0 °F 33.1 °F 73% 30.17 in 10.0 mi Variable 3.5 mph - N/A   Partly Cloudy
11:30 PM 39.0 °F 35.7 °F 32.0 °F 76% 30.15 in 10.0 mi NE 4.6 mph - N/A   Partly Cloudy
11:32 PM 39.0 °F 35.7 °F 32.0 °F 76% 30.15 in 10.0 mi NE 4.6 mph - N/A   Partly Cloudy
11:53 PM 39.9 °F 36.7 °F 33.1 °F 77% 30.17 in 10.0 mi ENE 4.6 mph - N/A   Clear